www.pogodaiklimat.ru

Погода и климат >> Архив погоды >> Монголия >> Биндэр


ПОГОДА в Биндэре

  • Прогноз погоды в Биндэре
  • Монитор погоды в Биндэре

АРХИВ ПОГОДЫ в Биндэре

Время (UTC), дата Ветер
(напр.,м/с)
 
Видим.   Явления Облачность Т
(С)
Тd
(С)
f
(%)
Тe
(С)
Тes
(С)
Комфортность P
(гПа)
Po
(гПа)
Тmin
(С)
Tmax
(С)
R
(мм)
R24
(мм)
S
(см)
21 10.06 штиль 0 20 км 10/10 600 м
[Sc]
+17.1 +7.1 52 +17 +17 1004.5 887.7
00 11.06 штиль 0 20 км слаб. дождь 10/10 600 м
[Cu Sc]
+18.2 +9.5 57 +18 +18 1004.7 888.2 +16.1 0.1
03 11.06 ЮЗ 10 20 км в посл. час дождь 10/6 600 м
[Cu Sc As trans]
+20.1 +10.1 53 +21 +21 комфорт 1003.6 888.1
06 11.06 ЮЗ 7 20 км {дождь} 9/1 600 м
[Cu med, cong As trans]
+23.7 +9.3 40 +25 +27 комфорт 1001.0 887.0
09 11.06 ЮЗ 4 20 км 8/8 600 м
[Cb cap Ci]
+25.7 +6.8 30 +26 +26 жарко 998.9 885.8
12 11.06 З 2 20 км {ливн. осадки} 8/3 600 м
[Cb cap Ac lent Ci]
+25.2 +8.0 33 +25 +25 комфорт 999.3 886.0 +27.8 0.2
15 11.06 С 4 н/о зарница 9/3 600 м
[Cb calv As trans]
+21.0 +6.3 38 +22 +22 комфорт 1005.2 889.7
18 11.06 З 5 н/о 6/0
[Ac lent Ci fib]
+15.8 +5.5 50 +15 +15 1009.8 891.9
21 11.06 З 3 20 км 8/0
[Cs]
+12.2 +4.6 60 +11 +11 1014.2 894.3
00 12.06 СЗ 6 20 км 8/0
[Ac As Ci]
+15.7 +4.2 46 +14 +16 1013.6 895.2 +11.1
03 12.06 С 6 20 км 8/4 600 м
[Cu med, cong Cs]
+20.1 +1.3 29 +20 +23 1011.1 894.6
06 12.06 С 7
{16}
20 км 6/3 600 м
[Cu med, cong Cs]
+21.6 +1.5 26 +21 +24 комфорт 1008.9 893.2
09 12.06 СЗ 8
{17}
20 км 5/3 600 м
[Cu med, cong Ac cast]
+22.3 -0.7 22 +21 +22 комфорт 1007.8 892.5
12 12.06 С 4 20 км 3/0
[Ac lent Ci]
+19.0 -1.7 25 +19 +19 1010.1 893.4 +22.6
15 12.06 СЗ 2 н/о 1/0
[Ci]
+14.3 -0.5 36 +14 +14 1013.3 894.3
18 12.06 СЗ 1 н/о 6/0
[Ac lent Ci]
+10.3 +0.8 52 +10 +10 1015.4 894.6
21 12.06 З 2 20 км 6/0
[Ac lent Cc]
+10.0 +1.1 54 +9 +9 1016.3 895.3
00 13.06 ЮВ 1 20 км 3/0
[Cc]
+15.0 +2.8 44 +16 +22 1014.1 895.4 +8.8
03 13.06 В 2 20 км 1/0
[Ci fib]
+19.5 +2.1 31 +20 +36 опасность
простуды
1010.8 894.2
06 13.06 В 3 20 км 1/1 600 м
[Cu hum]
+23.9 +1.6 23 +23 +35 комфорт 1006.5 892.0
09 13.06 С 2 20 км 3/3 600 м
[Cu med, cong]
+25.8 +0.5 19 +24 +29 комфорт 1004.4 890.7
12 13.06 В 2 20 км 3/3 600 м
[Cu med, cong Ci]
+24.1 +3.2 26 +23 +24 комфорт 1005.7 891.3 +26.9
15 13.06 З 3 н/о 1/0
[Ci fib]
+15.1 +3.9 47 +15 +15 1011.3 892.9
18 13.06 З 3 н/о 3/0
[Ci]
+11.3 +3.4 58 +10 +10 1013.9 893.7
21 13.06 З 2 20 км 5/0
[Ac lent Cs]
+8.0 +2.8 70 +6 +6 1015.8 894.1
00 14.06 В 1 20 км 1/0
[Ci fib]
+16.3 +3.2 41 +17 +24 1012.3 894.3 +8.0
03 14.06 СВ 1 20 км 1/0
[Ci fib]
+22.7 +3.9 29 +23 +41 комфорт 1008.4 893.2
06 14.06 Ю 6
{12}
20 км 3/1 600 м
[Cu hum Ci fib]
+28.0 +2.1 19 +26 +32 жарко 1003.5 890.8
09 14.06 Ю 4 20 км 9/4 600 м
[Cu med, cong Cc]
+28.9 -0.2 15 +26 +29 жарко 1001.2 889.1
12 14.06 ЮВ 5 20 км 9/8 600 м
[Cu med, cong Ac lent Ci]
+25.8 +2.5 22 +25 +25 комфорт 1002.8 889.3 +29.2
15 14.06 ЮВ 5 н/о 9/0
[Ac und]
+21.5 +2.8 29 +21 +21 комфорт 1005.8 890.4
18 14.06 ЮВ 5 н/о 9/4 600 м
[Sc Ac As Cs]
+19.3 +1.1 30 +19 +19 1006.8 890.6
21 14.06 штиль 0 20 км 9/3 600 м
[Sc Ac As Cc]
+14.7 +1.3 40 +15 +15 1009.6 891.3
00 15.06 В 2 20 км 10/3 600 м
[Cu med, cong Ac lent Cs]
+18.7 +0.4 29 +19 +21 1008.1 891.4 +14.6
03 15.06 Ю 7 20 км 10/3 600 м
[Cu med, cong As trans]
+23.0 +0.7 23 +22 +23 комфорт 1005.6 890.8
06 15.06 ЮВ 7 20 км 10/8 600 м
[Cu med, cong Ac lent]
+23.4 -0.5 20 +22 +22 комфорт 1004.2 889.7
09 15.06 ЮВ 7 20 км 10/6 600 м
[Cu Sc As trans]
+23.7 -0.7 20 +22 +23 комфорт 1003.0 888.8
12 15.06 В 5 20 км 10/5 600 м
[Cu Sc Ac As]
+21.0 +1.2 27 +21 +21 комфорт 1004.1 888.8 +24.7
15 15.06 В 3 н/о 10/8 600 м
[Sc Ac As]
+18.7 +2.1 33 +19 +19 1006.0 889.6
18 15.06 В 1 н/о 10/4 600 м
[Cu Sc As trans]
+17.1 +1.4 35 +18 +18 1007.2 890.1
21 15.06 З 2 20 км 9/1 600 м
[Cu hum Ac lent Ci]
+14.5 +2.0 43 +14 +14 1007.6 889.4
00 16.06 В 4 20 км 10/0
[Ac lent]
+17.2 +0.3 32 +17 +18 1006.6 889.5 +14.3
03 16.06 В 5 20 км 10/4 600 м
[Cu med, cong Ac As]
+19.3 +1.9 31 +19 +21 1005.9 889.7
06 16.06 Ю 4 20 км 9/4 600 м
[Cu med, cong Ac As]
+20.4 +3.2 32 +21 +24 комфорт 1005.1 889.5
09 16.06 Ю 6 20 км 9/5 600 м
[Cb calv Ac und]
+20.0 +4.4 36 +20 +21 1005.4 889.5
12 16.06 штиль 0 20 км 9/3 600 м
[Cu med, cong Ac und Cc]
+18.9 +3.7 36 +19 +19 1006.0 889.7 +21.3
15 16.06 З 3 н/о 9/0
[Ac und Cs]
+13.6 +4.6 54 +13 +13 1009.2 890.4
18 16.06 С 1 н/о 10/6 600 м
[Sc Ac trans]
+12.4 +5.7 64 +13 +13 1009.8 890.5
21 16.06 С 2 20 км 9/4 600 м
[Cu Sc Ac lent Ci fib]
+11.7 +5.9 68 +11 +11 1010.2 890.7
00 17.06 СВ 2 20 км 9/0
[Ac trans Cc]
+17.2 +2.6 38 +18 +21 1008.2 891.0 +11.4
03 17.06 Ю 1 20 км 9/3 600 м
[Sc Cc]
+21.4 -2.5 20 +21 +32 комфорт 1006.6 891.1
06 17.06 Ю 3 20 км 8/3 600 м
[Cu med, cong Ac As Ci]
+23.6 -4.0 16 +22 +28 комфорт 1005.0 890.5
09 17.06 С 2 20 км 4/0
[Cc]
+24.8 -5.3 13 +23 +29 комфорт 1003.9 890.0
12 17.06 штиль 0 20 км 3/0
[Ac lent Cc]
+23.6 -3.3 16 +22 +22 комфорт 1004.8 890.3 +25.6
15 17.06 З 4 н/о 3/0
[Ac lent]
+11.5 -1.4 41 +10 +10 1011.8 892.0
18 17.06 З 4 н/о 3/0
[Ac lent]
+10.0 -1.0 46 +8 +8 1013.1 892.5

 

Местоположение метеостанции Биндэр (Монголия): широта 48.62 долгота 110.60 высота над уровнем моря 747 м.

В архиве по умолчанию представлена погода в Биндэре за последнюю неделю. Архивные данные за месяц целиком и за предыдущие месяцы, начиная с января 2011 года, Вы можете получить, выбрав интересующий диапазон дат из раскрывающегося списка и нажав кнопку "Ввод!".


*Определитесь, кто Вы:
робот инопланетянин человек

Внимание! Время в таблицах - всемирное. Для получения местного времени необходимо прибавить поправку, которая равна 8 ч.

Смотрите также архив погоды в соседних городах и на ближайших метеорологических станциях:

Погода в Татаале (Монголия) (67 км)
Погода в Букукуне (Забайкальский край, Россия) (99 км)
Погода в Кыре (Забайкальский край, Россия) (142 км)
Погода в Ундерхаане (Монголия) (145 км)
Погода в Баян-Ову (Монголия) (146 км)
Погода в Мензе (Забайкальский край, Россия) (159 км)
Погода в Мангуте (Забайкальский край, Россия) (189 км)
Погода в Черемхово (Забайкальский край, Россия) (221 км)
Погода в Красном Чикое (Забайкальский край, Россия) (238 км)
Погода в Улыгайин Дуганг (Монголия) (248 км)

Пояснения к столбцам:

Ветер - указаны скорость ветра в м/с - средняя за 10 мин, порывы в срок и между сроками (в фигурных скобках) и направление, откуда дует ветер: С - северный, СВ - северо-восточный, В - восточный, ЮВ - юго-восточный, Ю - южный, ЮЗ - юго-западный, З - западный, СЗ - северо-западный.
Видимость - горизонтальная дальность видимости в метрах или километрах. При видимости от 1 до 10 км при отсутствии осадков обычно наблюдается дымка, при ухудшении видимости до 1 км и менее - туман. В сухую погоду видимость может ухудшаться дымом, пылью или мглою.
Явления - указаны атмосферные явления, наблюдавшиеся в срок или в последний час перед сроком; фигурными скобками обозначены явления, наблюдавшиеся между сроками (за 1-3 часа до срока); квадратными скобками обозначены град или гололедные отложения с указанием их диаметра в мм.
Облачность - указаны через наклонную черту общая и нижняя облачность в баллах и высота нижней границы облаков в метрах; квадратными скобками обозначены формы облаков: Ci - перистые, Cs - перисто-слоистые, Cc - перисто-кучевые, Ac - высококучевые, As - высокослоистые, Sc - слоисто-кучевые, Ns - слоисто-дождевые, Cu - кучевые, Cb - кучево-дождевые. Подробнее классификацию облаков см. в Атласе облаков (PDF).
T - Температура воздуха - температура, измеренная на высоте 2 м над землей.
Td - Температура точки росы - температура, при понижении до которой содержащийся в воздухе водяной пар достигнет насыщения.
f - Относительная влажность воздуха - влажноcть воздуха, измеренная на высоте 2 м над землей.
Te - Эффективная температура - температура, которую ощущает одетый по сезону человек в тени. Характеристика душности погоды. При расчете учитывается влияние влажности воздуха и скорости ветра на теплоощущения человека.
Tes - Эффективная температура на солнце - температура, которую ощущает человек, с поправкой на солнечный нагрев. Характеристика знойности погоды. Зависит от высоты солнца над горизонтом, облачности и скорости ветра. Ночью, в пасмурную погоду, а также при ветре 12 м/с и более поправка равна нулю.
P - Атмосферное давление - приведенное к уровню моря атмосферное давление.
Po - Атмосферное давление - измеренное на уровне метеостанции атмосферное давление.
Tmin - Минимальная температура - минимум температуры воздуха на высоте 2 м над землей.
Tmax - Максимальная температура - максимум температуры воздуха на высоте 2 м над землей.
R - Количество осадков - Количество выпавших осадков за период времени, мм. При наведении курсора мыши на число - период времени, за который выпало указанное количество осадков.
R24 - Количество осадков - Количество выпавших осадков за 24 часа, мм.
S - Снежный покров - Высота снежного покрова, см. При наведении курсора мыши на число - состояние снежного покрова и степень покрытия местности в баллах.